Hourly Data Report for May 25, 2022

CORAL HARBOUR A
NUNAVUT
Current Station Operator: NAVCAN

64°11'36.000" N
83°21'34.000" W
62.20 m
2301002
71915
YZS

Download Data

Hourly Data (May 2022)
Hourly Data Report for May 25, 2022
TIME
LST
Temp Definition
°C
Dew Point Definition
°C
Rel Hum Definition
%
Precip. Amount Definition
mm

Wind Dir Definition
10's deg

Wind Spd Definition
km/h
Visibility Definition
km
Stn Press Definition
kPa
Hmdx Definition


Wind Chill Definition


Weather Definition


00:00 -7.0 -7.9 93   28 13 24.1 99.89   -13 Snow
01:00 -6.7 -7.2 96   29 14 24.1 99.90   -12 Snow
02:00 -6.7 -6.7 100   28 13 24.1 99.94   -12 Snow
03:00 -7.0 -7.0 100   26 13 19.3 99.96   -13 Snow
04:00
05:00 -6.6 -6.9 98   28 14 19.3 100.03   -12 Snow
06:00 -5.9 -6.3 97   30 13 24.1 100.09   -11 Snow
07:00 -5.4 -5.9 96   31 14 24.1 100.13   -11 Snow
08:00 -5.0 -6.8 87   33 14 24.1 100.17   -10 Snow
09:00 -4.5 -6.6 85   2 12 24.1 100.23   -9 Snow
10:00 -4.8 -7.8 79   36 11 24.1 100.28   -9 Snow
11:00 -3.9 -8.0 73   36 14 24.1 100.32   -9 LegendNANA
12:00 -4.1 -9.1 68   34 19 24.1 100.36   -10 LegendNANA
13:00 -4.4 -8.8 71   35 21 24.1 100.39   -11 Mostly Cloudy
14:00 -4.1 -9.7 65   34 21 24.1 100.45   -11 LegendNANA
15:00 -4.4 -10.2 64   36 23 24.1 100.52   -11 LegendNANA
16:00 -4.5 -9.4 68   35 25 24.1 100.57   -12 Mostly Cloudy
17:00 -4.8 -10.0 67   34 19 24.1 100.64   -11 LegendNANA
18:00 -5.1 -10.0 69   31 21 24.1 100.68   -12 LegendNANA
19:00 -5.5 -10.0 71   31 24 24.1 100.73   -13 Cloudy
20:00 -6.2 -8.8 82   35 18 24.1 100.78   -13 LegendNANA
21:00 -6.8 -9.1 84   33 22 24.1 100.82   -14 Snow
22:00 -7.0 -9.2 85   34 17 24.1 100.86   -13 Snow
23:00 -7.3 -10.3 80   33 21 24.1 100.87   -15 Snow

Notes on Data Quality.

Legend

  • E = Estimated
  • M = Missing
  • NA = Not Available*
  • [empty] = Indicates an unobserved value
Date modified: